User: anonymous   Login
Location: Unspecified
(0.0000°N, 0.0000°E)
Time: 03:14:49
(UTC+00:00)
Language:

SMS 2 - Orbit

View from above orbital plane
View from above orbital plane
View from above satellite
View from above satellite

Ground track
Ground track

The orbit data is extracted from the following two-line orbital elements,

1  7648U 75011A   18147.22217443 -.00000041 +00000-0 +00000-0 0  9991
2  7648 012.2111 317.6590 0010090 187.3624 197.3900 00.99512753106396
Epoch (UTC): 27 May 2018 05:19:55
Eccentricity: 0.0010090
inclination: 12.2111°
perigee height: 35957 km
apogee height: 36043 km
right ascension of ascending node: 317.6590°
argument of perigee: 187.3624°
revolutions per day: 0.99512753
mean anomaly at epoch: 197.3900°
orbit number at epoch: 10639

The dashed part of the orbit path shows where the satellite is in the earth's shadow,  

DLR